{"data":{"norad_id":41787,"epoch":"2026-05-25T05:29:38.032224Z","epoch_age_seconds":51700,"freshness":"FRESH","line1":"1 41787U 16059E   26145.22891241  .00000527  00000+0  10050-3 0  9997","line2":"2 41787  97.8167 145.5420 0026944 280.1329  79.6837 14.67631674516342","mean_motion":14.67631674,"eccentricity":0.0026944,"inclination_deg":97.8167,"raan_deg":145.542,"arg_perigee_deg":280.1329,"mean_anomaly_deg":79.6837,"bstar":0.0001005,"rev_number":51634,"period_min":98.117260993374,"perigee_km":649.65201751515,"apogee_km":687.62568321761,"semimajor_km":7046.7758503664,"source":"CELESTRAK","updated_at":"2026-05-25T13:38:12.824120Z"}}